Location: Unspecified
(0.0000°N, 0.0000°E)
Time: 05:24:59
(UTC+00:00)

PCSat - Pass Details

Date: 12 December 2017
Orbit: 786 x 794 km, 67.1° (Epoch: 18 January)

Event Time Altitude Azimuth Distance (km) Brightness Sun altitude
Rises 05:12:55 0° 360° (N) 3,275 12.5 -9.4°
Reaches altitude 10° 05:15:36 10° 11° (N) 2,348 11.9 -8.8°
Maximum altitude 05:20:15 29° 71° (ENE) 1,402 11.5 -7.7°
Drops below altitude 10° 05:24:53 10° 130° (SE) 2,353 13.5 -6.6°
Sets 05:27:35 0° 141° (SE) 3,283 14.0 -6.0°
